Location: Ethel Rock
(53.4667°N, 4.5667°W)
Time: 23:53:28
(UTC+00:00)

ALOS - Pass Details

Date: 24 October 2020
Orbit: 683 x 685 km, 97.9° (Epoch: 26 November)

Event Time Altitude Azimuth Distance (km) Brightness Sun altitude
Rises 04:13:17 0° 21° (NNE) 3,063 6.1 -25.6°
Reaches altitude 10° 04:15:48 10° 33° (NNE) 2,142 5.4 -25.3°
Maximum altitude 04:19:54 29° 94° (E) 1,244 4.2 -24.7°
Drops below altitude 10° 04:23:58 10° 154° (SSE) 2,127 4.9 -24.1°
Sets 04:26:26 0° 166° (SSE) 3,037 5.6 -23.7°
